Regional Weather Roundup
Issued by NWS

Home | Current Version | Previous Version | Text Only | Print | Product List | Glossary On
Versions: 1 2 3 4 5 6 7 8 9 10 11 12 13 14 15 16 17 18 19 20 21 22 23 24 25 26 27
000
ASUS45 KBOU 012110
RWRCO

WEATHER ROUNDUP FOR COLORADO
NATIONAL WEATHER SERVICE DENVER/BOULDER CO
300 PM MDT SAT OCT 01 2016

NOTE: "FAIR" INDICATES FEW OR NO CLOUDS BELOW 12000 FEET WITH NO
SIGNIFICANT WEATHER AND/OR OBSTRUCTIONS TO VISIBILITY.

COZ001>005-013-030-031-012200-
...NORTHWEST COLORADO...

CITY           SKY/WX    TMP DP  RH WIND       PRES   REMARKS
CRAIG          FAIR      74  40  29 W9G18     30.14F
HAYDEN         FAIR      70  37  30 W5        30.16F
MEEKER         TSTM      62  48  60 W14G26    30.19R
MOUNT WERNER   NOT AVBL
STEAMBOAT SPGS FAIR      68  39  34 SW6       30.18F
WALDEN           N/A     64  28  25 SW8       30.25F
$$

COZ006>008-011-012200-
...WEST CENTRAL VALLEYS...

CITY           SKY/WX    TMP DP  RH WIND       PRES   REMARKS
GRAND JUNCTION FAIR      74  48  39 VRB5      30.10F
MONTROSE       FAIR      75  42  30 N7        30.14F
EAGLE          MOSUNNY   72  34  25 SW16      30.17F
RIFLE          FAIR      75  43  31 W12       30.12F
DELTA          NOT AVBL
NUCLA          FAIR      72  41  33 NW10      30.20F
$$

COZ017>023-064>068-012200-
...SOUTHWEST COLORADO...

CITY           SKY/WX    TMP DP  RH WIND       PRES   REMARKS
DURANGO        FAIR      71  42  35 W15G21    30.20F
CORTEZ         FAIR      71  47  42 VRB6      30.18F
PAGOSA SPRINGS FAIR      67  34  29 S7        30.25F
TELLURIDE      FAIR      58  39  48 W9        30.35F
WOLF CREEK PAS NOT AVBL
$$

COZ009-010-012-014-032>034-037-058>063-012200-
...CENTRAL COLORADO...

CITY           SKY/WX    TMP DP  RH WIND       PRES   REMARKS
ASPEN          PTSUNNY   62  37  39 N10G20    30.24S
BUENA VISTA    CLOUDY    67  32  27 NE3       30.22F
COPPER MTN     PTSUNNY   50  32  50 W14G21    30.48F
BERTHOUD PASS  PTSUNNY   43  34  70 N18       30.51S
COTTONWOOD PAS CLOUDY    68  30  24 CALM      30.35S
GUNNISON       PTSUNNY   63  39  42 N14       30.23F
KREMMLING      PTSUNNY   70  32  24 CALM      30.22F
LEADVILLE      CLOUDY    56  23  27 NW9       30.33F
MONARCH PASS   PTSUNNY   50  32  50 SW20G25   30.58F
SALIDA         CLOUDY    70  38  31 N6        30.26F
SUNLIGHT       CLOUDY    50  39  66 CALM      30.46F
WILKERSON PASS FAIR      57  32  38 SW6       30.45F
$$

COZ069>075-012200-
...SAN LUIS VALLEY/SANGRE DE CRISTO MOUNTAINS...

CITY           SKY/WX    TMP DP  RH WIND       PRES   REMARKS
ALAMOSA        FAIR      70  34  26 N7        30.22F
LA VETA PASS   FAIR      61  28  29 MISG      30.38F
SAGUACHE       FAIR      66  34  30 SW6       30.23F
$$

COZ035-036-038>040-012200-
...NORTHERN COLORADO FRONT RANGE...

CITY           SKY/WX    TMP DP  RH WIND       PRES   REMARKS
DENVER INTL AP FAIR      79  39  23 S7        30.07F
DMNS CITY PARK   N/A     78  38  23 W2        30.06S
AURORA         MOSUNNY   78  38  23 W6        30.08F
FRONT RANGE AP MOSUNNY   81  39  22 VRB6      30.08F
ERIE MUNI ARPT FAIR      80  36  20 E7        30.05F
BOULDER MUN AP FAIR      79  39  24 S5        30.05F
CENTENNIAL     FAIR      75  36  24 NE10      30.09F
BROOMFIELD     PTSUNNY   77  37  24 S3        30.09F
FORT COLLINS   FAIR      81  41  24 S9        30.02F
LONGMONT       FAIR      83  40  21 SE7       30.06F
$$

COZ041-046-047-076>085-087-088-012200-
...PIKES PEAK/PALMER DIVIDE AND SOUTHERN FOOTHILLS...

CITY           SKY/WX    TMP DP  RH WIND       PRES   REMARKS
COLO. SPRINGS  FAIR      74  41  30 S15       30.13F
A. F. ACADEMY  FAIR      73  40  30 S9        30.13F
SCHRIEVER AFB  NOT AVBL
ELLICOTT       NOT AVBL
FALCON         CLOUDY    75  38  25 S10       30.17F
FORT CARSON    FAIR      73  41  31 VRB1      30.10F
LIMON          FAIR      77  39  25 SE7       30.07F
MONUMENT HILL  FAIR      70  37  30 NE5       30.18F
TRINIDAD       PTSUNNY   78  35  21 S6        30.10F
$$

COZ042>045-048>051-090-091-012200-
...NORTHEAST COLORADO...

CITY           SKY/WX    TMP DP  RH WIND       PRES   REMARKS
GREELEY ARPT   FAIR      81  43  26 SW10      30.04F
AKRON          FAIR      79  43  27 MISG      30.04F
BURLINGTON     FAIR      75  48  38 SE9       30.05F
WRAY           NOT AVBL
STERLING       FAIR      82  45  26 SE8       29.99F
HOLYOKE        FAIR      81  46  30 SE15      30.02F
FORT MORGAN    FAIR      82  39  21 S6        30.03F
$$

COZ086-089-092>099-012200-
...SOUTHEAST COLORADO...

CITY           SKY/WX    TMP DP  RH WIND       PRES   REMARKS
PUEBLO         FAIR      82  41  23 NW7       30.02F
LA JUNTA       FAIR      81  46  29 VRB3      30.02F
LAMAR          FAIR      78  50  37 N5        29.99F
SPRINGFIELD      N/A     80  48  32 CALM      30.02F
$$




USA.gov is the U.S. government's official web portal to all federal, state and local government web resources and services.